This is the latest recevied weather packets stored in our database for station/object KB2SKP. If no packets are shown the sender has not sent any weather packets the latest 10 day(s).
| Time | Temp. | Humidity | Pressure | Rain* | Wind** | Luminosity | Snow |
|---|---|---|---|---|---|---|---|
| 1777375248 | 6.67° C | 95% | 1018.8 hPa | 0 mm | - | 25 W/m² | - |
| 1777374944 | 6.67° C | 95% | 1019 hPa | 0 mm | - | 21 W/m² | - |
| 1777374640 | 6.67° C | 95% | 1018.9 hPa | 0 mm | - | 18 W/m² | - |
| 1777374336 | 6.11° C | 95% | 1018.7 hPa | 0 mm | - | 16 W/m² | - |
| 1777374033 | 6.11° C | 95% | 1018.7 hPa | 0 mm | - | 11 W/m² | - |
| 1777373729 | 6.11° C | 95% | 1018.4 hPa | 0 mm | - | 8 W/m² | - |
| 1777373427 | 6.11° C | 95% | 1018.6 hPa | 0 mm | - | 7 W/m² | - |
| 1777373122 | 6.11° C | 95% | 1018.3 hPa | 0 mm | - | 8 W/m² | - |
| 1777372817 | 6.11° C | 95% | 1018.6 hPa | 0 mm | - | 7 W/m² | - |
| 1777372512 | 5.56° C | 95% | 1018.3 hPa | 0 mm | - | 6 W/m² | - |
| 1777372210 | 5.56° C | 95% | 1018.4 hPa | 0 mm | - | 5 W/m² | - |
| 1777371905 | 5.56° C | 95% | 1018.4 hPa | 0 mm | - | 3 W/m² | - |
| 1777371602 | 5.56° C | 95% | 1018.3 hPa | 0 mm | - | 2 W/m² | - |
| 1777371298 | 5.56° C | 95% | 1018.7 hPa | 0 mm | - | 1 W/m² | - |
| 1777370994 | 5.56° C | 95% | 1018.6 hPa | 0 mm | - | 1 W/m² | - |
| 1777370689 | 5.56° C | 95% | 1018.4 hPa | 0 mm | - | 0 W/m² | - |
| 1777370386 | 5.56° C | 95% | 1018.3 hPa | 0 mm | - | 0 W/m² | - |
| 1777370081 | 5.56° C | 95% | 1018.4 hPa | 0 mm | - | 0 W/m² | - |
| 1777369779 | 5.56° C | 95% | 1018.7 hPa | 0 mm | - | 0 W/m² | - |
| 1777369479 | 5.56° C | 95% | 1018.6 hPa | 0 mm | - | 0 W/m² | - |
| 1777369174 | 5° C | 95% | 1018.5 hPa | 0 mm | - | 0 W/m² | - |
| 1777368873 | 5.56° C | 95% | 1018.3 hPa | 0 mm | - | 0 W/m² | - |
| 1777368573 | 5° C | 95% | 1018.5 hPa | 0 mm | - | 0 W/m² | - |
| 1777368270 | 5.56° C | 95% | 1018.4 hPa | 0 mm | - | 0 W/m² | - |
| 1777367966 | 5° C | 95% | 1018.6 hPa | 0 mm | - | 0 W/m² | - |
* Rain latest hour (hover to see other rain measurements)
** Current wind speed in m/s (hover to see current wind gust speed)